Miscellaneous Local Product
Issued by NWS North Platte, NE

Home | Current Version | Previous Version | Text Only | Print | Product List | Glossary On
Versions: 1 2 3 4 5 6 7 8 9 10 11 12 13 14 15 16 17 18 19 20 21 22 23 24 25 26 27 28 29 30 31 32 33 34 35 36 37 38 39 40 41 42 43 44 45 46 47 48 49 50
000
AXUS43 KLBF 040510
MISLBF


WESTERN AND NORTH CENTRAL NEBRASKA HOURLY WEATHER ROUNDUP
NATIONAL WEATHER SERVICE NORTH PLATTE NE
1100 PM CST SAT DEC 03 2016

NOTE: "FAIR" INDICATES FEW OR NO CLOUDS BELOW 12,000 FEET WITH NO
SIGNIFICANT WEATHER AND/OR OBSTRUCTIONS TO VISIBILITY.

NOTE: STATIONS NOT REPORTING VARIABLES SUCH AS SKY/WEATHER OR
PRESSURE ARE PROVIDED BY RAWS AND APRS NETWORKS AND ARE NOT UNDER
NATIONAL WEATHER SERVICE QUALITY CONTROL.

...OBSERVATIONS IN AND NEAR THE EASTERN PANHANDLE OF NEBRASKA...

CITY           SKY/WX    TMP DP  RH WIND       PRES   REMARKS
PINE RIDGE     PTCLDY    22  18  85 CALM      29.95S
CHADRON        CLOUDY    26  17  68 W8        29.98R WCI  18
ALLIANCE       PTCLDY    22  13  68 W8        29.97F WCI  12
SIDNEY         CLEAR     25  14  63 W9        30.01F WCI  15
CRESCENT LAKE    N/A     31  15  51 W8          N/A  WCI  24
$$

...OBSERVATIONS IN NORTHERN NEBRASKA AND FAR SOUTHERN SOUTH DAKOTA...

CITY           SKY/WX    TMP DP  RH WIND       PRES   REMARKS
WINNER         FAIR      29  22  75 SW8       29.93R WCI  21
VALENTINE      PTCLDY    25  18  74 W8        29.94S WCI  16
THEDFORD       CLEAR     27  18  67 CALM      29.96S
AINSWORTH      PTCLDY    27  19  72 W5        29.94F WCI  22
O`NEILL        CLOUDY    34  32  92 SW10      29.97S WCI  26
ORD            CLOUDY    33  29  85 S7        29.99F WCI  27
BROKEN BOW     CLOUDY    34  31  88 SW12      29.98F WCI  25
VALENTINE NWR    N/A     28  17  62 W5          N/A  WCI  23
BUTTE            N/A     32  25  76 SW5         N/A  WCI  27
HALSEY           N/A     29  26  88 S3          N/A
CHAMBERS         N/A     33  30  90 S6          N/A  WCI  27
EWING            N/A     33  30  90 S10         N/A  WCI  25
$$

...OBSERVATIONS IN SOUTHWEST NEBRASKA AND FAR NORTHEAST COLORADO...

CITY           SKY/WX    TMP DP  RH WIND       PRES   REMARKS
WRAY           FAIR      25  14  63 W5        30.04  WCI  19
HOLYOKE        FAIR      28  16  59 W9        30.03S WCI  20
IMPERIAL       PTCLDY    27  14  58 W12       30.02R WCI  17
OGALLALA       CLOUDY    32  19  58 W5        30.00S WCI  27
NORTH PLATTE   CLOUDY    28  27  96 SW5       30.00S WCI  23
MCCOOK         PTCLDY    31  30  96 SW8       30.02F FOG     WCI  23
LEXINGTON      CLOUDY    33  32  95 W8        30.02F FOG     WCI  26
STAPLETON        N/A     24  22  93 CALM        N/A
GOTHENBURG       N/A     33  31  94 SW5         N/A  WCI  28
CALLAWAY         N/A     32  31  97 SW6         N/A  WCI  26
$$

...OBSERVATIONS IN CENTRAL LINCOLN COUNTY AREA...

CITY           SKY/WX    TMP DP  RH WIND       PRES   REMARKS
N.P. AIRPORT   CLOUDY    28  27  96 SW5       30.00S WCI  23
N.P. DOWNTOWN    N/A     28  26  94 CALM        N/A
N.P. SOUTHEAST   N/A     28  26  91 CALM        N/A
N.P. HILLCREST   N/A     28  26  94 SW3         N/A
$$

...SOME OBSERVATIONS FROM AROUND THE REGION...

CITY           SKY/WX    TMP DP  RH WIND       PRES   REMARKS
LARAMIE        CLEAR     16   7  67 W10       29.99S WCI   4
CHEYENNE       CLEAR     26  10  50 W23       29.98F WCI  11
DENVER         PTCLDY    25  12  58 SW7       30.03F WCI  17
AKRON          CLEAR     28  12  51 NW13      30.03R WCI  17
SCOTTSBLUFF    PTCLDY    23  13  65 NW7       30.00F WCI  15
RAPID CITY     PTCLDY    30  22  72 W6        29.91S WCI  24
BISMARCK       CLOUDY    26  25  96 CALM      29.79F
PIERRE         CLEAR     28  22  78 W7        29.88S WCI  21
SIOUX FALLS    CLOUDY    34  33  96 S15       30.00F FOG     WCI  24
OMAHA          LGT SNOW  33  29  85 CALM      30.08F VSB 1
GRAND ISLAND   CLOUDY    32  32 100 SW12      30.04F WCI  23
KANSAS CITY    LGT RAIN  42  36  79 S7        30.10S
WICHITA        LGT RAIN  42  41  96 N3        30.07S FOG
OKLAHOMA CITY  CLOUDY    44  43  96 E6        30.03S FOG
DALLAS         DRIZZLE   48  45  89 NE12      29.96F FOG
AMARILLO       CLOUDY    38  37  97 S3        30.00F
DODGE CITY     LGT RAIN  38  37  97 N3        30.05S FOG
HAYS           CLOUDY    33  32  96 CALM      30.06F FOG
GOODLAND       CLEAR     26  21  81 W8        30.03R WCI  18
$$




USA.gov is the U.S. government's official web portal to all federal, state and local government web resources and services.